DELTA 1 DEB, 12539

Orbit data source: Space-Track

DELTA 1 DEB, 12539 is space debris in SSO originally from a launch on Thu, 29 Jul 1976 UTC launched from the Air Force Western Test Range (AFWTR). Debris objects in space refer to the collection of defunct objects orbiting the Earth. Examples of debris include non-operational satellites, rocket bodies, and fragments generated from explosions, collisions, or faulty payload assembly.

Loading next visibility...
Identifier
12539, 1976-077DU
Orbit
SSO
Country
Flag of USUS
Related business
Manufacturer
Unknown
Mission
Spacecraft
Bus & Motor
Unknown
Mass
Unknown
Launch date (UTC)
1976-07-29 (49 years ago)
Launch vehicle
Unknown
Launch site
Air Force Western Test Range (AFWTR)
Object type
Payload
Rocket body
Debris
Shape & HBR
Unknown shape, 0.1 m
Radar Cross Section
Small (<0.1 m²)

Expand to show TLE details & history
Last TLE update: 23 hours ago

TLE from 23 hours ago
0 DELTA 1 DEB
1 12539U 76077DU  25288.63583759 -.00000955  00000-0 -30800-2 0  9992
2 12539 101.7008 191.2011 0365176  60.0455 338.6591 12.78600571 98236
Epoch: 2025-10-15T15:15Z
TLE epoch observation values (Epoch: 2025-10-15T15:15:36.367Z)
Latitude
36.29338°
Longitude
-70.81041°
Altitude
1,090.398 km
Speed
7.433 km/s
True Right ascension
12h 09m 59s
True Declination
36° 08' 12"
Sunlit
Object was in daylight at epoch
Visualization orbit readout
Latitude
Unknown
Longitude
Unknown
Altitude
Unknown
Speed
Unknown
Apparent Right ascension
Unknown
Apparent Declination
Unknown
Sunlit
N/A
Visualization observer readout
Local Sidereal Time
09:11:26
Azimuth
Unknown
Elevation
Unknown
Doppler factor
Unknown
Orbital elements
Apogee altitude
1,626.619 km
Perigee altitude
1,062.587 km
Semi-major axis
7,722.74 km
Eccentricity
0.03652
Inclination
101.7008°
RAAN
191.2011°
Arg. of periapsis
60.0455°
True anomaly
337.06896°
Mean anomaly
338.6591°
Eccentric anomaly
337.87094°
Mean motion
3.19806 °/min
Orbital period
112.57 mins
BSTAR
-0.00308
Loading maneuver chart data...
Computing Atmospheric mass density...
Loading historical data...
Loading historical data...
Loading historical data...
Loading historical data...
Loading historical data...
Loading historical data...
Loading historical data...

Documentation

Showing up to 5 results
|